Location: Catstown
(52.4386°N, 7.2633°W)
Time: 17:12:04
(UTC+00:00)

Resurs 01 Rocket - Pass Details

Date: 18 September 2020
Orbit: 633 x 645 km, 98.0° (Epoch: 30 October)

Event Time Altitude Azimuth Distance (km) Brightness Sun altitude
Exits shadow 22:34:23 11° 260° (W) 1,955 4.3 -31.5°
Maximum altitude 22:35:28 12° 275° (W) 1,904 4.4 -31.6°
Drops below altitude 10° 22:37:16 10° 299° (WNW) 2,052 4.9 -31.8°
Sets 22:40:53 0° 330° (NNW) 2,968 6.2 -32.1°
